Date,TemperatureHighF,TemperatureAvgF,TemperatureLowF,DewpointHighF,DewpointAvgF,DewpointLowF,HumidityHigh,HumidityAvg,HumidityLow,PressureMaxIn,PressureMinIn,WindSpeedMaxMPH,WindSpeedAvgMPH,GustSpeedMaxMPH,PrecipitationSumIn
2013-1-1,24.9,11.8,1.7,12.0,4.5,-2.4,83,73,50,30.26,30.10,12,6,16,0.00
2013-1-2,30.0,22.3,12.3,27.9,19.0,7.9,93,87,79,30.15,30.00,17,8,24,0.00
2013-1-3,30.2,22.1,13.6,27.6,18.2,10.9,93,85,74,30.34,30.15,23,11,32,0.00
2013-1-4,39.2,30.0,14.8,26.0,23.0,12.4,90,76,56,30.28,30.13,15,8,19,0.00
2013-1-5,39.7,30.3,24.1,34.5,26.3,20.2,90,85,76,30.13,29.92,30,12,34,0.00
2013-1-6,36.5,25.1,16.3,24.3,19.2,13.1,88,79,60,30.28,30.08,25,10,35,0.00
2013-1-7,48.1,35.0,25.7,32.4,27.0,21.1,84,73,53,30.15,29.95,18,10,30,0.00
2013-1-8,50.2,37.6,30.6,37.9,31.5,26.4,88,79,60,30.09,29.79,19,10,26,0.00
2013-1-9,34.8,33.8,33.0,30.8,30.1,29.5,87,86,85,30.19,30.09,9,6,13,0.00
2013-1-10,43.5,39.4,36.2,39.2,34.9,28.4,98,85,60,30.23,29.68,15,9,18,0.10
2013-1-11,53.3,46.1,36.5,49.7,43.9,33.4,99,93,63,29.68,29.43,36,12,43,0.01
2013-1-12,35.6,22.4,14.0,33.2,15.9,7.8,92,76,67,30.07,29.63,33,17,51,0.00
2013-1-13,20.9,13.1,7.5,10.8,6.3,2.6,82,74,56,30.28,30.02,19,12,27,0.00
2013-1-14,29.1,18.1,7.4,14.5,9.3,3.6,85,69,48,30.43,30.28,10,4,14,0.00
2013-1-15,34.0,23.3,14.6,17.1,13.9,10.1,83,68,46,30.33,30.03,9,6,14,0.00
2013-1-16,49.8,33.8,20.6,37.3,26.0,14.2,90,73,60,30.17,29.88,22,12,28,0.00
2013-1-17,41.4,28.8,18.5,29.9,22.7,12.8,90,78,56,30.43,30.16,20,5,26,0.00
2013-1-18,56.5,41.7,29.2,36.6,31.8,25.4,89,70,44,30.29,29.88,26,13,38,0.00
2013-1-19,52.9,39.8,19.6,34.7,30.2,11.2,86,70,48,30.26,29.83,31,14,47,0.00
2013-1-20,19.4,15.1,11.1,13.0,8.5,5.6,86,75,61,30.34,30.26,21,10,26,0.00
2013-1-21,13.2,7.7,1.8,7.9,-0.9,-6.8,80,68,57,30.38,30.30,24,13,35,0.00
2013-1-22,16.8,11.3,6.3,6.1,2.5,-2.0,77,67,58,30.36,30.23,6,3,10,0.00
2013-1-23,31.7,19.1,5.5,19.7,11.1,-1.1,86,71,57,30.46,30.12,24,13,33,0.00
2013-1-24,20.6,11.4,2.7,10.6,-0.1,-4.2,75,60,46,30.51,30.15,18,12,24,0.00
2013-1-25,44.6,27.8,13.9,26.1,18.7,9.6,85,70,47,30.23,30.06,21,10,30,0.00
2013-1-26,43.8,26.4,11.2,22.1,14.6,5.7,83,62,41,30.27,30.06,17,10,22,0.00
2013-1-27,45.1,38.1,31.2,44.8,35.3,20.1,99,90,58,30.06,29.69,17,10,25,0.15
2013-1-28,57.1,43.4,35.7,56.8,43.0,35.2,99,99,98,29.86,29.54,18,9,21,0.00
2013-1-29,61.9,38.5,30.3,61.0,37.4,29.0,100,96,88,29.65,29.48,26,14,29,0.01
2013-1-30,30.2,23.0,16.9,29.2,19.4,12.9,96,86,72,29.85,29.49,34,23,49,0.00
2013-1-31,16.8,6.3,-0.1,12.8,0.2,-6.4,87,75,68,30.34,29.85,30,19,47,0.00
2013-2-1,25.0,8.8,-5.8,18.7,3.1,-10.4,84,77,69,30.35,30.01,18,9,29,0.00
2013-2-2,29.3,24.5,20.2,26.7,19.8,12.3,93,83,70,30.15,29.99,18,9,23,0.00
2013-2-3,35.5,28.6,19.8,28.7,21.8,14.0,90,76,57,30.15,29.77,33,12,37,0.00
2013-2-4,33.8,25.9,20.4,28.5,22.2,17.9,94,86,79,29.97,29.72,23,9,30,0.00
2013-2-5,46.3,34.2,23.6,36.9,28.5,21.1,92,81,59,30.07,29.79,22,10,31,0.00
2013-2-6,47.5,39.1,29.0,39.1,34.2,26.3,92,83,67,30.07,29.85,17,9,26,0.00
2013-2-7,44.1,36.0,28.7,42.6,34.4,26.4,98,94,81,30.18,29.84,25,14,34,0.44
2013-2-8,29.6,27.4,24.8,26.8,25.1,22.5,93,91,87,30.31,30.17,18,10,25,0.00
2013-2-9,41.2,34.0,27.8,36.1,31.3,25.9,97,90,79,30.19,29.71,21,14,26,0.04
2013-2-10,49.1,38.1,32.0,46.9,35.6,25.0,99,91,70,29.72,29.26,41,23,50,0.05
2013-2-11,34.8,30.4,25.0,28.3,25.2,22.5,90,81,75,30.11,29.67,43,23,61,0.01
2013-2-12,45.3,32.4,20.8,31.5,25.6,19.1,94,77,53,30.12,29.85,15,6,20,0.00
2013-2-13,50.7,37.8,25.2,34.2,28.9,22.3,90,72,47,29.86,29.69,15,8,22,0.00
2013-2-14,43.5,36.7,25.6,33.4,29.2,15.1,86,74,57,30.17,29.71,26,16,36,0.00
2013-2-15,30.1,23.0,16.5,19.7,15.8,10.7,87,74,57,30.30,30.17,23,12,33,0.00
2013-2-16,36.0,25.3,12.6,23.2,17.5,9.8,90,74,46,30.26,30.02,12,6,17,0.00
2013-2-17,50.9,37.2,25.1,33.3,27.5,20.8,86,69,48,30.02,29.58,19,12,28,0.00
2013-2-18,41.0,32.5,18.1,34.9,26.1,11.7,90,77,67,29.95,29.51,35,18,45,0.00
2013-2-19,25.5,16.2,10.4,12.1,5.4,2.1,80,63,37,30.32,29.95,29,19,42,0.00
2013-2-20,24.4,14.6,1.4,10.9,4.7,-3.1,82,66,48,30.36,30.20,18,10,24,0.00
2013-2-21,24.0,22.1,19.5,22.3,16.7,10.9,93,80,63,30.23,29.75,27,18,34,0.00
2013-2-22,24.3,21.5,17.3,21.9,18.3,15.1,93,87,80,29.97,29.72,23,11,30,0.00
2013-2-23,33.2,21.1,7.5,24.5,16.3,4.7,90,82,69,29.96,29.84,10,6,14,0.00
2013-2-24,42.0,29.2,15.3,31.2,24.0,12.6,92,81,64,30.03,29.89,9,4,11,0.00
2013-2-25,38.4,33.9,29.7,32.4,29.5,26.1,92,84,72,30.02,29.83,23,11,29,0.00
2013-2-26,31.8,30.2,28.6,29.5,28.2,26.6,95,92,89,29.83,29.65,27,19,35,0.00
2013-2-27,34.6,29.0,25.2,28.9,25.5,22.9,93,86,73,29.98,29.77,28,18,36,0.00
2013-2-28,32.3,28.2,24.9,26.0,24.1,21.6,89,85,74,30.14,29.98,23,16,32,0.00
2013-3-1,29.2,26.2,23.3,23.8,22.0,17.5,90,84,77,30.29,30.13,17,13,22,0.00
2013-3-2,34.4,25.0,19.4,23.5,19.4,15.5,86,79,63,30.30,30.11,12,6,18,0.00
2013-3-3,36.2,29.2,21.6,26.7,22.6,17.8,87,77,65,30.11,29.77,23,14,29,0.00
2013-3-4,41.6,34.5,29.9,33.7,29.5,24.5,96,82,70,29.92,29.68,23,13,30,0.00
2013-3-5,33.8,28.9,25.5,32.5,24.1,20.2,96,82,76,30.28,29.91,36,24,53,0.00
2013-3-6,32.2,26.9,23.0,24.8,21.8,20.0,88,81,71,30.38,30.26,19,9,29,0.00
2013-3-7,40.1,28.9,19.3,31.2,24.3,17.4,92,83,67,30.28,30.15,19,13,25,0.00
2013-3-8,47.8,38.2,29.8,39.1,32.7,25.8,88,81,70,30.20,29.95,22,13,32,0.05
2013-3-9,47.8,42.4,39.0,47.5,41.1,36.6,99,95,85,29.94,29.58,23,12,25,0.31
2013-3-10,42.2,33.4,27.1,41.7,32.8,25.3,99,97,93,29.78,29.60,29,19,36,0.12
2013-3-11,27.9,25.8,23.1,25.3,22.7,20.0,94,88,78,29.94,29.74,26,16,36,0.00
2013-3-12,33.8,27.6,21.0,28.0,23.1,18.3,91,83,74,30.25,29.93,33,17,42,0.00
2013-3-13,40.2,28.0,17.4,29.8,22.3,14.7,89,80,62,30.41,30.25,13,6,20,0.00
2013-3-14,53.0,42.4,32.2,43.6,35.5,26.3,94,77,66,30.25,30.04,13,8,20,0.00
2013-3-15,62.5,46.0,34.0,49.7,41.1,32.5,97,84,59,30.05,29.67,21,6,21,0.00
2013-3-16,38.2,33.1,27.9,37.4,29.7,24.0,97,87,78,30.15,29.77,27,17,35,0.00
2013-3-17,40.9,31.7,24.1,32.1,26.2,20.6,90,80,66,30.13,29.76,21,15,28,0.00
2013-3-18,35.2,32.3,26.0,33.7,26.3,18.8,97,79,60,29.99,29.70,42,17,55,0.00
2013-3-19,45.2,30.7,19.8,27.4,19.3,12.7,87,65,37,30.22,29.98,20,9,27,0.00
2013-3-20,30.2,23.3,15.3,24.3,13.0,6.2,82,65,46,30.32,30.09,24,16,31,0.00
2013-3-21,33.2,25.4,16.3,20.9,17.5,13.1,87,73,55,30.09,29.91,9,6,14,0.00
2013-3-22,36.2,28.8,20.4,26.7,20.9,17.6,89,73,52,30.01,29.93,12,7,16,0.00
2013-3-23,35.6,30.9,27.4,28.5,26.1,22.6,95,83,60,30.08,29.96,19,11,22,0.00
2013-3-24,29.6,27.4,25.0,27.8,25.2,22.6,94,91,87,29.99,29.89,25,18,35,0.00
2013-3-25,32.8,28.9,25.0,26.5,24.4,22.6,94,84,69,30.25,29.96,25,18,34,0.00
2013-3-26,39.3,29.5,20.8,26.8,22.7,17.4,87,76,59,30.33,30.23,14,7,21,0.00
2013-3-27,49.4,35.9,23.0,33.9,27.7,20.1,90,73,50,30.28,30.19,13,6,18,0.00
2013-3-28,60.7,44.5,29.4,39.3,33.9,26.8,90,68,42,30.25,30.15,15,8,19,0.00
2013-3-29,60.7,48.3,40.3,37.0,35.9,35.2,83,63,41,30.20,30.07,11,8,15,0.00
2013-3-30,63.8,53.2,46.3,57.3,45.6,37.4,91,76,61,30.07,29.83,22,8,28,0.08
2013-3-31,54.8,45.8,31.7,41.5,34.9,25.8,94,69,34,30.08,29.89,29,13,42,0.00
2013-4-1,39.1,29.7,19.9,29.6,20.8,16.1,94,71,48,30.27,30.08,20,12,25,0.00
2013-4-2,49.0,35.2,21.3,25.7,21.8,18.0,88,61,35,30.31,30.23,13,6,19,0.00
2013-4-3,53.2,39.2,26.3,29.8,26.1,21.8,84,62,38,30.35,30.22,14,6,18,0.00
2013-4-4,63.4,47.6,31.6,40.5,31.2,22.2,70,55,34,30.21,30.01,18,8,28,0.00
2013-4-5,64.8,49.9,29.7,44.4,36.6,27.0,91,63,41,30.17,29.77,17,10,25,0.00
2013-4-6,68.3,59.7,50.5,51.1,44.0,39.3,71,57,43,29.77,29.57,37,15,49,0.00
2013-4-7,75.0,57.2,38.6,54.4,43.0,35.6,93,63,34,29.87,29.64,17,9,27,0.03
2013-4-8,71.0,59.5,46.4,61.0,55.5,45.6,98,87,67,29.75,29.59,17,6,22,0.20
2013-4-9,74.0,56.2,41.9,64.9,53.7,41.4,98,92,69,29.86,29.64,26,16,35,0.08
2013-4-10,44.0,41.3,39.4,43.5,40.6,38.6,99,97,94,29.93,29.67,32,12,36,0.79
2013-4-11,39.6,35.8,33.5,39.1,34.2,31.1,98,94,83,29.71,29.59,24,14,30,0.04
2013-4-12,39.2,35.7,33.3,33.3,31.6,27.9,95,85,75,29.95,29.64,25,18,31,0.00
2013-4-13,50.7,40.8,28.6,39.8,33.1,25.8,90,75,59,29.99,29.72,17,10,24,0.00
2013-4-14,69.2,53.9,45.3,55.8,46.5,38.8,91,76,57,29.72,29.39,23,16,30,0.12
2013-4-15,47.2,41.5,36.4,40.9,34.2,29.5,85,75,63,30.04,29.65,26,9,28,0.00
2013-4-16,47.9,41.6,32.2,37.6,33.8,29.0,89,74,61,30.20,30.02,19,12,24,0.00
2013-4-17,45.6,43.1,41.1,44.2,40.7,37.4,99,92,73,30.15,29.63,28,16,41,2.46
2013-4-18,41.2,36.2,33.1,40.6,34.6,29.5,99,94,86,29.78,29.57,32,22,42,0.52
2013-4-19,44.8,36.5,29.6,32.3,27.5,24.4,89,71,46,30.06,29.74,32,23,45,0.00
2013-4-20,48.9,38.0,25.5,31.6,25.4,18.4,88,63,37,30.24,30.06,16,6,20,0.00
2013-4-21,67.5,54.4,41.3,48.2,39.6,31.7,79,59,33,30.18,30.03,24,14,34,0.00
2013-4-22,66.3,52.5,35.5,52.8,47.4,34.7,97,84,51,30.14,29.91,25,11,30,0.35
2013-4-23,41.1,35.9,32.3,34.7,30.2,26.9,97,80,64,30.13,30.05,27,19,36,0.00
2013-4-24,55.9,39.5,25.6,38.2,27.3,22.8,90,65,36,30.16,30.01,20,11,29,0.00
2013-4-25,65.0,53.5,32.8,42.9,36.6,30.1,91,56,32,30.25,30.07,15,10,21,0.00
2013-4-26,63.8,56.1,47.1,52.3,46.7,42.2,91,71,64,30.19,30.06,23,13,35,0.00
2013-4-27,69.4,56.1,44.6,51.8,47.9,43.1,96,76,50,30.20,29.96,10,4,15,0.00
2013-4-28,76.9,61.4,45.6,55.4,51.1,44.8,97,72,42,29.98,29.74,15,9,22,0.00
2013-4-29,83.8,69.0,55.5,63.5,58.0,52.2,90,70,45,29.77,29.55,14,8,20,0.00
2013-4-30,84.9,74.1,60.8,62.7,57.6,48.5,76,57,43,29.83,29.56,22,14,32,0.00
2013-5-1,60.8,48.6,36.7,49.7,41.8,34.3,97,78,64,30.31,29.83,36,26,54,0.06
2013-5-2,38.2,35.4,33.5,36.7,33.6,32.1,98,94,80,30.42,30.26,33,22,47,0.45
2013-5-3,35.2,34.5,33.9,33.8,32.6,32.0,95,93,91,30.03,29.93,24,20,32,0.00
2013-5-4,47.6,40.6,34.0,46.1,39.7,32.5,98,97,94,30.06,29.85,24,16,35,0.07
2013-5-5,55.4,48.5,43.2,52.8,47.5,42.8,99,96,90,30.10,30.03,15,11,19,0.00
2013-5-6,71.9,58.8,48.8,58.5,52.5,48.5,99,82,52,30.10,30.00,14,7,18,0.00
2013-5-7,77.1,64.2,50.1,58.6,52.1,48.2,96,68,38,30.07,29.96,8,3,13,0.00
2013-5-8,70.6,62.3,56.1,60.2,55.2,48.4,90,78,68,30.00,29.88,11,6,15,0.00
2013-5-9,69.3,60.4,56.1,60.6,57.0,54.1,97,89,68,29.94,29.84,18,10,25,0.78
2013-5-10,66.9,56.7,48.7,54.3,49.6,46.8,97,79,52,30.03,29.92,20,12,27,0.00
2013-5-11,57.7,53.5,44.7,47.7,34.2,24.5,85,51,28,30.21,29.98,32,17,45,0.00
2013-5-12,62.6,50.7,35.2,34.8,27.3,22.8,75,43,23,30.25,30.12,12,5,19,0.00
2013-5-13,78.8,62.9,45.9,54.4,42.4,29.8,69,49,30,30.13,29.86,17,8,25,0.00
2013-5-14,96.5,79.0,59.4,63.3,55.9,48.9,86,51,22,29.86,29.64,18,9,28,0.00
2013-5-15,75.8,72.0,67.1,54.3,51.4,47.2,54,48,41,29.86,29.75,10,7,15,0.00
2013-5-16,81.2,70.4,62.6,68.6,61.4,47.6,91,74,43,29.90,29.78,15,7,22,0.15
2013-5-17,81.5,71.1,62.5,66.6,62.8,60.1,94,77,53,29.92,29.83,12,7,18,0.00
2013-5-18,85.0,73.5,60.4,66.8,63.5,58.1,93,73,52,29.92,29.72,18,10,26,0.00
2013-5-19,86.5,70.4,59.7,68.0,62.5,58.9,98,79,46,29.78,29.51,23,11,45,0.94
2013-5-20,78.3,66.7,59.8,66.1,60.1,57.3,98,80,59,29.68,29.53,21,10,25,0.00
2013-5-21,69.4,63.0,58.5,58.1,53.4,49.4,89,72,54,29.68,29.58,21,12,37,0.00
2013-5-22,59.9,55.4,52.5,56.1,52.6,51.1,98,90,75,29.91,29.67,22,13,30,0.00
2013-5-23,70.3,59.9,52.3,54.0,49.8,45.6,95,73,42,30.25,29.92,20,12,28,0.00
2013-5-24,72.4,61.5,49.8,53.7,48.8,44.5,83,65,45,30.32,30.10,17,11,26,0.00
2013-5-25,69.8,61.0,53.7,63.7,57.0,48.7,93,87,65,30.21,30.03,28,16,36,0.30
2013-5-26,77.9,62.6,55.6,70.2,60.2,53.5,98,92,77,30.07,29.86,26,15,34,0.38
2013-5-27,74.7,65.3,58.3,65.5,62.4,57.7,99,91,70,29.97,29.60,28,10,37,1.40
2013-5-28,79.4,70.0,62.6,71.3,65.8,61.6,98,87,64,29.75,29.59,18,5,20,0.90
2013-5-29,79.1,70.7,63.9,71.5,66.3,60.8,97,86,73,29.77,29.63,19,9,31,0.34
2013-5-30,72.0,66.7,60.6,68.2,63.2,56.6,98,89,76,29.70,29.56,17,9,26,0.63
2013-5-31,76.8,69.6,60.9,67.4,63.5,56.0,97,82,49,29.71,29.61,14,7,19,0.01
2013-6-1,67.0,59.8,56.1,63.6,54.8,50.5,93,84,70,29.95,29.64,27,15,34,0.00
2013-6-2,65.6,57.8,52.2,51.7,49.2,45.8,95,74,53,30.08,29.95,17,8,25,0.00
2013-6-3,72.3,61.1,48.3,55.7,51.3,45.4,92,72,50,30.07,29.89,16,7,22,0.00
2013-6-4,70.5,63.7,57.3,65.5,59.4,53.9,93,86,79,29.99,29.92,23,10,30,0.13
2013-6-5,69.9,65.2,61.2,63.7,60.4,54.9,98,85,65,30.00,29.93,15,6,20,0.04
2013-6-6,70.0,62.8,52.8,58.1,54.7,50.4,93,76,56,29.99,29.92,14,6,23,0.00
2013-6-7,69.9,60.2,51.2,55.2,51.5,48.8,95,75,49,30.03,29.92,13,5,19,0.00
2013-6-8,74.0,64.5,53.9,62.2,56.4,49.8,96,76,55,29.93,29.72,18,8,25,0.57
2013-6-9,66.7,63.5,62.0,62.5,61.2,59.9,96,92,82,29.78,29.73,20,10,29,0.23
2013-6-10,82.5,69.6,61.9,68.5,64.1,60.7,97,84,60,29.91,29.77,14,5,20,0.00
2013-6-11,86.5,76.3,66.5,74.2,68.9,63.5,92,79,60,29.87,29.72,10,5,14,0.02
2013-6-12,89.4,77.8,65.6,75.6,68.8,57.1,93,75,56,29.94,29.71,25,11,38,0.00
2013-6-13,81.4,71.7,60.1,61.9,58.1,54.8,87,64,41,30.08,29.94,19,7,30,0.00
2013-6-14,73.6,68.6,63.0,67.8,63.5,58.2,98,84,73,30.06,29.84,36,10,41,1.12
2013-6-15,82.8,72.3,65.2,75.0,68.1,63.6,98,87,69,29.97,29.87,27,6,33,0.07
2013-6-16,86.9,74.6,65.1,72.5,66.1,61.0,99,77,47,29.99,29.92,11,4,15,0.01
2013-6-17,87.8,77.2,65.7,71.3,63.4,53.8,97,67,32,30.00,29.91,13,5,21,0.00
2013-6-18,84.3,73.5,62.5,68.5,62.8,57.4,92,71,44,30.05,29.96,10,4,14,0.12
2013-6-19,85.2,75.0,64.2,68.5,65.1,61.2,90,73,52,30.05,29.95,12,6,19,0.01
2013-6-20,87.7,78.7,68.3,72.8,69.0,64.4,88,73,58,30.00,29.89,18,10,27,0.00
2013-6-21,90.5,82.8,73.4,78.3,73.7,70.5,92,75,55,29.95,29.84,17,8,26,0.03
2013-6-22,92.4,82.4,73.2,75.6,72.1,68.8,90,72,52,30.00,29.83,14,6,22,0.00
2013-6-23,84.3,76.3,65.8,72.5,69.6,61.9,93,80,63,29.97,29.75,29,8,37,0.18
2013-6-24,81.3,74.5,66.0,74.2,70.5,61.9,98,88,53,29.97,29.74,29,6,36,0.37
2013-6-25,88.8,79.8,72.2,76.9,72.5,69.0,91,79,54,29.82,29.70,12,5,20,0.00
2013-6-26,90.2,81.5,71.9,77.4,70.6,61.1,96,72,39,29.88,29.65,20,8,29,0.00
2013-6-27,84.3,76.5,67.8,73.1,68.8,64.3,91,78,59,29.99,29.88,17,5,27,0.00
2013-6-28,84.7,77.5,70.3,66.3,60.7,55.7,81,58,38,29.93,29.82,25,14,37,0.00
2013-6-29,75.9,70.3,64.2,65.2,59.5,56.6,81,69,54,29.91,29.81,27,14,37,0.02
2013-6-30,78.3,67.8,59.4,60.3,56.0,51.2,88,68,40,30.08,29.91,19,9,27,0.00
2013-7-1,82.1,69.9,57.4,57.9,54.0,50.7,81,59,35,30.15,30.08,16,8,23,0.00
2013-7-2,81.5,70.3,57.8,63.4,57.7,53.0,85,66,42,30.14,30.04,13,4,21,0.00
2013-7-3,84.6,71.8,60.1,61.7,58.5,54.2,90,66,39,30.06,29.97,7,2,11,0.00
2013-7-4,80.0,66.9,59.8,62.4,58.5,55.3,87,75,53,30.03,29.99,5,2,7,0.00
2013-7-7,93.2,87.5,79.6,74.1,71.4,67.7,77,60,49,29.92,29.85,11,6,17,0.00
2013-7-8,88.8,80.7,74.2,77.6,72.5,67.8,86,76,62,29.99,29.92,6,2,8,0.00
2013-7-9,93.5,84.0,74.8,79.4,75.7,71.4,91,77,60,29.98,29.88,7,3,13,0.12
2013-7-10,83.1,76.6,67.8,76.0,64.2,55.1,90,67,39,30.07,29.92,20,8,27,0.00
2013-7-11,85.8,74.3,60.5,64.0,60.7,56.2,86,65,44,30.11,29.99,12,6,18,0.00
2013-7-12,87.6,75.7,63.6,66.4,62.7,59.3,86,66,46,30.06,29.97,13,8,22,0.00
2013-7-13,84.5,75.4,68.7,70.7,64.7,60.1,77,70,61,30.04,29.97,17,8,23,0.00
2013-7-14,86.1,76.2,66.4,67.4,64.3,61.5,87,68,45,30.16,30.03,18,8,23,0.05
2013-7-15,86.9,74.7,67.0,72.3,66.9,62.9,89,77,58,30.21,30.16,13,7,19,0.00
2013-8-31,82.8,82.7,82.7,71.5,71.4,70.2,69,69,68,29.86,29.85,5,3,5,0.00
2013-9-14,77.3,72.8,67.3,54.3,51.0,46.5,63,47,35,30.07,29.91,7,5,0,0.00
2013-9-15,68.1,64.6,61.0,65.1,58.3,54.7,93,80,65,30.22,29.88,28,7,28,1.32
2013-9-16,63.1,58.8,52.6,56.5,54.3,51.5,97,85,75,30.32,30.20,23,9,23,0.01
2013-9-17,68.3,62.3,57.0,66.2,60.7,54.3,98,95,86,30.22,29.93,19,8,19,0.80
2013-9-18,90.5,77.4,66.1,73.3,69.4,64.5,97,78,51,29.96,29.75,20,7,20,0.00
2013-9-19,87.8,72.7,63.2,72.0,67.7,56.1,98,85,58,29.91,29.72,48,6,48,0.34
2013-9-20,68.5,60.5,51.8,55.9,51.0,46.6,91,72,54,30.03,29.91,29,11,29,0.00
2013-9-21,77.6,60.1,43.3,52.6,48.0,40.8,96,68,38,30.03,29.89,10,2,12,0.00
2013-9-22,79.2,65.1,53.6,59.3,53.9,49.4,87,69,45,29.96,29.85,15,5,15,0.00
2013-9-23,76.5,63.4,51.4,57.4,52.2,48.3,90,70,42,29.92,29.78,31,10,31,0.00
2013-9-24,70.2,63.2,59.7,62.4,57.3,52.1,93,81,72,29.89,29.76,19,8,19,0.00
2013-9-25,80.3,66.5,53.4,63.9,58.7,51.6,95,78,54,29.92,29.80,20,6,20,0.00
2013-9-26,84.9,72.0,61.3,65.6,62.4,60.1,96,75,45,29.90,29.82,24,9,24,0.00
2013-9-27,87.1,75.9,66.5,66.0,64.0,62.5,88,69,46,29.93,29.82,21,10,24,0.00
2013-9-28,71.8,64.0,51.6,65.7,57.0,47.1,94,79,57,30.05,29.75,35,9,35,0.18
2013-9-29,77.0,60.6,46.5,52.4,47.3,43.6,92,66,34,30.07,29.92,15,4,15,0.00
2013-9-30,79.3,63.9,51.1,56.1,52.1,48.0,91,69,36,29.93,29.75,17,5,17,0.00
2013-10-1,83.3,68.5,55.4,61.5,57.9,53.1,93,72,47,29.93,29.80,16,3,16,0.00
2013-10-2,86.0,74.3,58.4,68.7,64.0,56.3,95,72,50,30.00,29.84,18,5,18,0.00
2013-10-3,85.0,72.1,62.9,70.0,65.8,60.7,96,82,50,29.84,29.73,24,4,24,0.06
2013-10-4,73.6,66.9,63.3,69.8,64.0,60.9,95,90,77,29.84,29.74,41,9,41,0.12
2013-10-5,63.1,52.0,43.6,53.9,40.6,35.2,81,66,49,29.93,29.77,18,10,33,0.01
2013-10-6,50.6,46.1,42.1,48.0,43.3,37.0,96,90,69,29.93,29.72,24,12,35,0.02
2013-10-7,74.5,55.7,41.3,49.9,43.2,38.9,96,68,31,30.06,29.93,16,5,26,0.00
2013-10-8,77.6,63.7,48.0,50.3,47.4,43.8,86,59,33,30.05,29.95,13,7,21,0.00
2013-10-9,77.0,61.8,51.7,54.6,50.2,47.0,90,68,36,30.07,30.00,11,6,19,0.00
2013-10-10,79.0,63.5,51.6,57.7,51.6,47.3,88,68,41,30.04,29.85,12,6,20,0.00
2013-10-11,73.8,64.6,56.7,64.3,58.7,50.3,91,82,72,29.87,29.71,15,9,26,0.00
2013-10-12,66.5,55.8,45.7,49.7,41.1,34.9,88,61,32,30.26,29.85,19,7,26,0.00
2013-10-13,68.2,53.8,37.9,42.6,37.2,33.5,86,57,31,30.41,30.26,9,5,16,0.00
2013-10-14,68.3,56.5,45.7,57.4,41.7,34.9,96,60,36,30.31,29.78,23,13,30,0.34
2013-10-15,59.8,50.9,45.7,59.2,45.8,41.4,98,83,71,29.99,29.74,24,15,34,0.07
2013-10-16,52.1,46.1,39.7,43.2,41.5,37.0,93,84,68,30.03,29.95,16,9,23,0.00
2013-10-17,61.9,49.1,37.8,44.3,39.7,36.4,96,74,39,29.98,29.83,21,8,26,0.00
2013-10-18,48.8,42.4,34.7,39.3,34.7,31.1,95,75,51,30.08,29.97,17,7,28,0.00
2013-10-19,61.5,45.5,32.6,37.3,34.6,31.6,96,70,36,29.97,29.78,19,7,21,0.00
2013-10-20,63.1,51.8,40.7,45.7,41.3,33.1,86,69,47,29.94,29.71,16,6,21,0.00
2013-10-21,49.5,43.4,37.6,38.8,34.5,29.7,88,72,52,30.06,29.94,17,8,27,0.00
2013-10-22,45.9,41.2,35.8,42.2,36.8,31.7,93,84,73,30.07,29.81,15,7,22,0.03
2013-10-23,39.5,35.8,29.9,37.7,33.6,27.9,95,92,85,30.14,30.04,11,4,15,0.10
2013-10-24,47.2,38.2,31.2,35.8,30.1,26.7,90,74,49,30.37,30.14,17,8,24,0.00
2013-10-25,56.9,42.1,29.2,34.0,29.4,24.2,82,63,41,30.38,30.04,14,5,20,0.00
2013-10-26,51.9,44.3,35.1,36.8,32.5,28.7,84,64,44,30.15,29.97,22,9,35,0.00
2013-10-27,65.2,45.5,29.1,38.1,32.6,26.1,90,65,35,30.12,29.85,10,4,19,0.00
2013-10-28,56.1,45.6,36.1,40.5,36.8,30.8,89,72,54,30.22,29.95,16,10,21,0.00
2013-10-29,55.9,48.9,42.5,53.9,45.6,38.4,97,88,81,30.19,29.95,16,11,20,0.00
2013-10-30,60.9,56.7,50.1,59.9,56.1,49.6,99,98,93,29.97,29.67,19,8,28,0.77
2013-10-31,53.2,46.0,41.7,49.4,43.3,39.1,98,90,75,29.69,29.47,15,8,20,0.00
2013-11-1,58.1,45.5,37.5,43.3,39.9,35.9,95,82,48,29.90,29.53,27,11,37,0.07
2013-11-2,54.0,45.9,38.5,42.3,38.2,33.5,91,76,53,30.14,29.90,15,8,22,0.00
2013-11-3,56.5,47.8,36.8,40.9,36.8,32.8,86,67,45,30.10,29.82,23,14,36,0.00
2013-11-4,57.4,50.8,46.6,48.3,44.5,40.7,90,79,66,30.12,29.83,16,8,24,0.00
2013-11-5,58.2,49.4,38.5,57.2,47.1,37.7,98,92,81,30.12,29.77,21,11,22,0.52
2013-11-6,44.3,37.6,32.8,37.6,33.7,30.7,98,86,66,30.25,29.88,24,12,35,0.00
2013-11-7,47.1,37.7,29.7,35.9,29.2,24.6,95,74,46,30.32,30.22,20,8,22,0.00
2013-11-8,64.2,46.3,30.8,39.6,32.7,24.8,80,61,36,30.27,29.76,27,12,37,0.00
2013-11-9,59.2,48.5,38.8,39.1,36.6,32.8,80,65,44,30.30,29.87,21,10,28,0.00
2013-11-10,54.6,43.5,30.8,37.5,31.1,26.2,89,64,38,30.39,30.14,9,5,13,0.00
2013-11-11,50.8,34.8,17.2,40.9,28.8,12.3,90,79,60,30.68,30.08,27,13,36,0.00
2013-11-12,32.9,20.2,9.7,14.7,10.6,6.6,87,68,37,30.82,30.57,15,6,19,0.00
2013-11-13,49.1,35.7,20.5,26.4,20.2,12.3,73,54,40,30.56,30.02,16,11,25,0.00
2013-11-14,53.9,43.4,34.7,31.9,27.3,22.0,65,53,42,30.02,29.87,16,9,22,0.00
2013-11-15,57.0,43.7,30.4,42.7,35.3,27.1,88,74,49,29.89,29.67,16,7,20,0.00
2013-11-16,70.7,57.4,46.4,58.0,49.0,40.5,93,75,52,29.67,29.30,21,12,33,0.00
2013-11-17,55.9,48.7,38.9,48.7,42.9,35.4,92,80,63,30.00,29.25,29,11,33,0.06
2013-11-18,50.9,40.6,33.4,36.9,33.1,29.9,92,76,53,30.22,30.00,14,7,22,0.00
2013-11-19,58.7,46.1,33.7,34.5,31.4,28.8,85,59,35,30.21,29.93,22,14,30,0.00
2013-11-20,49.9,41.4,35.4,39.8,34.9,29.0,95,79,45,29.94,29.81,21,13,28,0.02
2013-11-21,37.4,31.1,23.4,36.4,29.6,21.3,97,94,89,30.43,29.94,19,11,28,0.00
2013-11-22,25.0,20.5,16.1,21.1,16.0,12.5,93,83,73,30.61,30.42,18,9,26,0.00
2013-11-23,20.9,14.2,6.9,15.8,7.7,2.6,84,75,64,30.78,30.55,21,11,29,0.00
2013-11-24,28.1,17.8,5.1,16.9,10.6,1.3,86,74,54,30.70,30.21,12,7,20,0.00
2013-11-25,36.3,30.6,25.1,29.7,23.9,16.5,87,76,69,30.21,30.07,19,9,26,0.00
2013-11-26,31.2,25.2,16.5,26.5,17.5,9.7,89,73,54,30.33,30.12,28,14,40,0.00
2013-11-27,30.2,20.5,10.4,17.6,12.3,6.8,85,71,53,30.35,30.01,13,7,17,0.00
2013-11-28,32.6,26.5,17.6,20.8,18.5,13.5,85,72,58,30.46,30.01,23,10,30,0.00
2013-11-29,43.4,29.8,16.2,29.3,22.8,12.7,87,76,56,30.47,30.16,15,8,18,0.00
2013-11-30,54.4,40.0,28.3,36.5,30.9,24.4,85,71,50,30.16,30.03,10,5,15,0.00
2013-12-1,47.3,35.9,25.9,32.6,28.9,22.8,89,77,53,30.12,29.85,11,6,14,0.00
2013-12-2,56.5,42.3,32.2,40.6,35.2,28.8,90,77,53,29.85,29.51,17,7,22,0.00
2013-12-3,46.3,39.1,36.4,42.0,37.7,35.6,98,95,84,29.62,29.48,17,6,20,0.00
2013-12-4,38.0,28.8,16.6,37.5,27.3,12.4,98,94,82,29.93,29.53,30,16,40,0.01
2013-12-5,17.2,12.9,7.7,12.9,6.6,1.2,86,76,65,30.36,29.92,31,17,44,0.00
2013-12-6,13.4,6.9,1.1,2.8,-0.4,-4.9,80,71,61,30.61,30.35,19,13,26,0.00
2013-12-7,15.2,5.8,-3.2,3.9,-1.5,-7.6,82,72,56,30.69,30.38,15,6,18,0.00
2013-12-8,19.4,15.7,11.8,15.5,11.1,3.5,91,82,66,30.38,29.94,17,10,20,0.00
2013-12-9,12.0,3.3,-2.2,9.4,-1.5,-5.6,90,80,67,30.26,30.05,17,9,21,0.00
2013-12-10,24.1,18.9,4.5,18.2,11.8,-0.8,80,73,64,30.19,29.99,23,11,33,0.00
2013-12-11,27.0,8.0,0.4,24.8,2.2,-4.8,92,77,66,30.58,30.17,29,10,33,0.00
2013-12-12,30.8,17.0,3.3,21.8,10.7,-1.7,83,76,68,30.45,30.07,12,6,16,0.00
2013-12-13,34.4,26.7,20.8,30.4,23.1,17.1,90,86,81,30.07,29.86,18,9,24,0.00
2013-12-14,24.6,19.8,14.2,21.8,16.5,11.4,91,87,79,30.13,29.97,20,13,27,0.00
2013-12-15,27.4,19.8,14.0,20.3,14.9,10.8,88,81,70,30.11,29.93,10,5,12,0.00
2013-12-16,38.6,26.1,14.0,31.7,22.5,11.6,95,86,73,30.11,29.93,20,8,28,0.00
2013-12-17,39.4,31.9,23.7,29.2,23.2,16.3,91,72,45,30.20,30.07,26,10,37,0.00
2013-12-18,54.6,39.8,25.1,37.6,29.3,17.1,80,67,49,30.14,29.70,18,8,27,0.00
2013-12-19,40.9,34.0,26.4,34.4,30.6,24.9,96,87,77,29.80,29.68,19,13,25,0.00
2013-12-20,26.3,21.5,19.6,24.8,19.8,17.9,94,93,93,29.89,29.75,20,10,30,0.00
2013-12-21,24.0,21.7,19.1,22.5,19.9,17.4,94,92,90,29.86,29.69,20,10,26,0.00
2013-12-22,24.0,16.8,4.8,22.5,13.7,0.8,94,87,80,30.29,29.73,23,15,30,0.00
2013-12-23,5.9,1.8,-5.5,0.8,-5.1,-11.4,84,73,60,30.51,30.29,21,10,29,0.00
2013-12-24,21.2,3.8,-12.8,19.3,-0.7,-18.0,93,81,73,30.50,30.13,22,9,28,0.00
2013-12-25,37.6,26.6,20.5,31.9,22.7,17.2,94,86,68,30.25,30.14,20,11,29,0.00
2013-12-26,38.1,29.0,19.3,29.4,23.7,15.5,91,81,67,30.22,30.07,15,7,26,0.00
2013-12-27,46.3,34.0,21.8,32.2,26.8,18.8,93,76,55,30.22,30.06,12,6,17,0.00
2013-12-28,47.0,38.0,23.5,35.8,31.0,19.7,87,76,63,30.07,29.78,30,10,35,0.00
2013-12-29,22.9,10.2,2.1,19.1,0.9,-6.6,85,67,45,30.26,29.96,35,19,42,0.00
2013-12-30,28.6,12.1,0.5,22.3,4.4,-6.8,85,71,60,30.25,30.05,26,8,37,0.00
2013-12-31,30.0,15.8,9.1,22.5,11.5,6.4,90,83,71,30.23,30.02,25,11,31,0.00
2014-1-1,11.2,7.7,1.2,7.7,3.9,-3.3,87,84,80,30.30,30.08,21,16,28,0.00
2014-1-2,7.6,1.6,-5.3,-1.5,-4.5,-9.8,84,75,59,30.42,30.27,14,8,18,0.00